Theta_e
337 338 338 338 338 338 338 339 339 339 338 337 337 338 339 339 339 338 338 339 338 337 338 338 337 336 336 337 338 337 338 337 336 335 335 334 332 332 332 333 332 330 330 331 332 332 332 332 332 333 334 335 334 332 332 331 330 327 322 323 327 328
338 339 337 337 336 335 337 338 338 338 337 337 338 338 339 340 341 339 338 338 337 336 336 335 334 334 335 337 337 337 338 337 335 335 335 334 332 332 331 332 333 331 330 331 332 331 332 333 334 334 334 335 334 332 331 331 331 327 322 324 327 328
338 338 335 334 333 333 335 336 337 337 336 337 338 339 340 341 341 339 338 338 338 336 335 333 333 333 334 335 336 337 337 335 334 334 334 334 333 332 331 331 332 332 331 330 331 332 333 334 335 335 335 335 334 332 331 331 330 325 323 326 327 327
335 335 332 331 332 333 332 334 336 337 337 338 339 339 340 340 340 339 339 338 338 337 335 334 334 334 334 334 335 336 336 334 333 333 333 333 333 332 332 331 331 333 333 332 331 332 333 334 335 336 336 335 333 330 330 330 328 323 323 327 328 327
338 336 331 330 331 331 331 334 336 336 336 338 339 339 339 340 339 339 338 338 338 338 336 336 337 337 335 333 334 335 335 333 331 331 332 333 333 332 331 331 330 331 334 335 335 334 334 335 334 335 337 335 331 330 330 330 328 323 321 325 328 328
339 339 334 331 330 329 332 334 335 335 335 338 339 339 339 339 338 337 336 337 338 339 337 337 338 337 335 334 334 335 335 332 329 329 331 332 332 332 331 331 330 330 333 335 336 336 336 336 335 334 337 335 331 331 330 330 329 325 323 325 327 327
339 339 334 330 329 330 333 334 335 336 336 338 339 338 338 338 337 336 336 337 338 338 338 337 338 336 335 334 334 334 332 329 328 328 330 330 330 330 331 331 330 331 332 333 334 336 335 336 336 335 336 334 332 332 331 330 329 327 326 326 326 326
339 337 333 330 329 331 334 335 337 338 338 338 339 338 338 337 337 336 337 338 338 338 337 336 337 335 335 335 332 331 330 328 328 329 329 329 328 329 330 330 331 331 332 332 333 335 334 334 335 335 335 334 332 332 332 331 330 329 327 327 327 326
339 337 333 330 329 332 336 337 339 340 339 339 339 339 338 337 337 335 337 338 338 337 336 336 336 335 335 335 334 332 331 330 331 331 331 332 331 330 330 331 332 331 331 331 332 334 335 333 333 334 335 333 332 333 333 332 331 331 328 327 328 326
339 337 333 330 330 335 338 338 339 340 339 339 339 339 338 337 336 335 336 336 337 337 335 334 335 335 335 335 336 335 333 332 332 332 333 334 333 332 332 332 332 331 331 332 332 333 334 332 332 333 334 332 331 333 333 332 332 332 329 327 328 327
339 336 332 330 332 336 337 337 339 340 339 339 339 338 338 337 336 336 335 335 336 336 334 333 334 335 335 335 336 335 334 333 333 334 333 334 333 332 333 332 332 332 332 332 332 333 333 331 331 333 332 330 331 333 333 332 332 332 329 327 328 327
339 336 334 334 335 336 336 336 338 340 339 338 338 337 337 337 336 336 336 335 335 335 334 333 334 334 334 335 335 335 334 334 334 333 332 333 333 333 333 332 332 333 333 332 332 334 333 331 333 333 331 330 331 332 332 332 332 332 330 327 327 328
339 337 337 337 337 336 336 337 338 338 339 338 337 337 337 336 336 336 336 335 334 335 334 333 333 333 333 335 335 335 335 335 334 333 334 335 334 334 334 333 333 334 334 333 333 335 334 332 333 333 331 330 331 331 332 332 332 332 331 329 328 327
339 338 338 337 336 337 338 338 337 337 338 339 338 337 336 336 336 336 335 334 333 334 334 333 333 333 333 335 336 336 335 335 334 334 335 336 335 335 335 335 335 335 334 332 332 334 333 332 332 332 332 331 331 331 331 333 332 332 332 330 328 328
339 338 338 336 337 338 339 339 339 338 339 339 338 338 336 336 336 336 335 334 333 333 334 334 334 334 334 335 335 336 336 335 334 335 335 335 335 335 335 335 335 334 333 332 332 333 333 332 331 332 332 330 330 330 331 332 332 332 332 331 330 329
339 339 339 337 338 339 339 339 340 339 339 338 337 337 337 336 336 336 335 334 333 333 334 334 333 333 333 333 335 336 336 335 335 335 335 335 335 335 335 335 335 334 333 332 332 333 333 332 332 332 331 330 331 330 330 331 332 332 332 332 331 330
339 340 340 339 339 339 338 339 339 338 337 336 335 337 338 337 336 335 335 334 333 333 334 334 332 332 333 333 334 335 336 336 336 335 334 335 336 335 335 334 334 333 333 332 331 333 334 332 331 331 331 331 331 331 330 331 332 332 332 332 331 331
340 340 339 339 339 338 338 338 338 337 336 336 335 336 337 337 336 334 334 333 334 334 334 333 332 332 333 333 334 334 336 336 335 335 335 336 336 335 335 334 334 333 333 332 331 333 333 332 331 331 332 332 332 331 331 331 331 331 331 332 331 330
340 339 337 337 337 337 338 337 338 337 336 335 335 336 337 337 336 335 334 334 335 335 333 332 333 333 333 334 333 333 334 335 335 335 335 336 335 334 334 335 334 333 332 332 332 333 334 332 331 332 332 332 332 331 331 331 331 330 330 331 330 330
340 339 336 335 335 336 337 337 337 337 336 336 336 335 336 336 336 336 335 335 335 334 333 333 333 333 334 334 333 333 333 334 336 336 335 335 334 333 334 335 335 333 332 332 333 334 334 332 331 332 332 331 331 331 331 330 330 330 330 329 330 330
341 338 335 333 334 335 336 336 336 336 335 336 335 335 335 335 336 335 334 334 334 334 334 334 334 334 334 333 333 333 334 335 336 336 335 335 334 334 335 335 335 334 333 332 333 333 332 331 331 331 331 331 331 331 331 331 330 330 330 329 329 329
340 336 334 333 334 335 336 336 336 335 334 334 334 334 335 335 335 334 333 334 334 335 334 334 335 335 334 333 333 333 334 335 336 335 335 335 334 335 335 335 335 334 333 332 332 332 332 331 332 331 330 330 330 330 330 330 330 330 329 330 329 329
338 335 335 334 333 335 335 336 336 335 334 334 333 334 335 335 335 334 334 334 335 335 334 335 336 335 335 334 334 334 335 335 336 335 334 335 334 334 335 334 335 334 333 333 332 332 332 332 332 331 330 331 330 330 329 329 330 330 329 329 330 329
338 335 335 334 332 335 336 335 336 335 334 334 333 335 336 334 334 333 334 334 334 335 335 336 336 334 335 334 333 334 335 334 335 335 334 334 334 334 335 334 334 334 333 334 334 333 333 332 331 330 331 332 330 330 331 329 328 329 329 329 329 329
338 336 335 333 333 335 336 335 335 335 335 334 334 336 336 334 334 333 334 334 334 335 335 336 336 335 335 334 334 335 335 334 334 335 335 335 334 334 334 333 333 333 333 333 334 333 333 331 330 330 331 332 331 332 332 329 328 329 329 329 330 329
338 336 334 333 333 336 335 334 335 335 334 334 334 336 335 334 334 334 334 334 334 335 335 335 335 336 335 334 335 336 335 334 334 335 336 335 334 334 333 334 334 333 333 333 332 333 333 331 331 331 330 330 332 333 331 328 329 329 328 329 329 329
337 335 334 333 334 335 333 333 335 334 333 334 333 334 334 333 334 334 334 334 335 335 335 335 335 335 335 335 336 337 336 335 334 335 335 334 334 334 334 334 334 333 333 333 332 332 332 331 331 331 330 330 330 329 329 328 329 329 329 330 329 329
337 335 335 333 333 333 333 333 334 334 333 333 333 333 333 333 335 335 335 335 336 336 335 335 334 334 335 335 336 336 336 335 335 334 334 334 334 334 334 334 333 333 333 332 332 332 331 331 331 331 331 331 330 328 328 329 328 328 329 330 329 329
336 336 335 334 332 333 333 333 335 334 333 333 334 333 333 333 334 335 335 336 336 336 336 335 334 334 334 334 335 335 336 336 335 334 333 334 334 333 333 333 333 332 332 332 332 332 332 332 331 331 331 331 331 329 329 329 328 327 328 329 330 328
336 336 336 335 333 333 333 333 334 334 334 334 334 333 333 333 333 335 335 336 336 336 336 334 333 334 334 334 334 335 335 335 335 334 334 334 333 333 333 333 332 332 332 332 332 332 332 332 332 331 331 331 332 331 330 329 329 328 327 328 329 327
337 336 336 335 334 333 332 333 334 334 334 335 335 333 333 333 333 335 335 336 336 336 336 334 334 335 334 334 334 335 335 334 334 334 334 333 332 332 332 333 332 332 332 332 332 332 331 331 331 331 331 331 331 331 330 330 330 329 328 327 328 327
336 336 336 335 334 332 332 333 334 334 334 334 335 334 333 333 334 334 334 336 337 336 336 335 335 334 334 334 334 334 334 333 333 333 332 332 332 331 332 333 333 333 333 333 332 332 331 330 330 331 331 330 330 331 331 330 330 329 328 328 327 327
336 337 336 334 334 332 332 334 335 334 334 334 335 334 333 334 334 334 334 336 336 335 335 334 334 334 333 333 333 333 333 333 333 332 332 332 331 331 332 332 333 333 333 333 332 332 331 330 330 330 331 330 331 332 331 330 329 328 328 328 327 326
337 337 335 333 333 332 332 334 335 334 333 333 334 334 333 334 335 334 335 336 336 335 335 334 334 334 333 333 333 333 333 332 332 332 332 332 332 332 332 333 333 333 333 332 332 332 332 332 331 330 331 331 331 331 331 330 329 328 328 327 327 326
337 337 335 333 332 333 333 335 335 334 333 332 333 334 334 334 335 334 335 335 335 334 334 334 333 333 333 332 332 332 332 331 331 331 332 332 332 332 332 333 334 333 332 332 332 332 332 332 332 331 331 330 330 330 330 330 330 330 329 328 327 327
337 337 336 334 333 333 334 334 334 334 333 332 332 333 333 334 335 335 335 334 334 333 333 332 332 332 332 331 331 331 330 330 331 331 331 331 331 332 333 333 333 333 332 332 332 332 332 332 332 332 331 330 330 329 329 330 331 331 329 328 327 327
336 337 337 335 334 333 333 333 333 333 333 333 332 332 332 334 335 335 334 334 333 333 332 332 332 332 331 330 330 330 329 330 330 330 330 330 330 331 332 333 333 333 332 332 332 332 332 332 332 332 331 330 331 330 329 330 330 331 330 328 327 327
Wind_Speed
20 20 20 19 18 19 18 19 20 18 17 17 18 18 17 17 17 16 16 16 17 17 16 15 13 11 11 12 12 11 11 10 8 8 9 9 9 8 9 10 11 13 16 18 18 17 15 15 15 14 15 17 15 15 13 11 11 12 13 15 17 16
20 21 21 21 20 21 20 20 20 19 18 18 17 17 17 17 18 18 17 16 16 16 16 15 13 12 12 12 12 11 11 10 8 9 10 9 9 9 9 9 10 12 14 16 15 15 14 14 13 13 14 16 13 15 13 11 11 12 13 15 16 15
25 25 24 23 23 23 22 21 21 21 20 19 18 17 18 18 19 19 18 16 16 16 16 15 14 12 12 12 12 11 10 10 9 10 10 10 10 9 8 9 10 10 12 13 13 12 13 12 12 12 12 14 12 15 12 11 12 13 15 15 15 14
34 32 31 28 27 26 24 23 23 22 21 20 20 19 20 20 21 20 19 18 17 16 16 15 14 13 12 12 12 11 10 9 10 11 11 11 10 9 9 9 9 9 11 11 10 10 10 10 11 9 8 10 11 14 11 11 13 14 16 15 13 13
34 34 35 34 32 30 27 25 24 23 21 22 22 21 22 23 22 21 20 19 18 17 16 15 15 14 13 13 13 12 10 9 9 11 12 11 11 11 9 9 8 9 10 9 8 8 6 5 6 4 4 9 12 12 10 11 13 14 15 15 13 12
33 34 34 35 34 32 30 28 26 24 23 23 23 23 24 24 23 22 21 20 20 18 16 17 17 15 14 14 14 12 11 9 8 10 11 11 11 12 10 9 8 8 8 6 6 6 5 2 1 1 1 9 15 12 12 12 12 13 14 14 13 12
36 35 34 34 34 33 32 29 27 26 25 24 24 25 25 26 25 23 22 21 20 19 18 18 17 16 15 14 12 10 9 7 7 10 11 10 10 11 11 9 8 8 7 3 3 6 5 2 4 3 2 6 14 13 13 13 12 12 12 12 13 12
37 36 35 35 34 34 33 31 28 27 26 26 27 27 27 27 26 24 21 20 21 20 19 19 17 16 15 13 10 9 9 8 8 10 10 9 9 9 11 10 9 9 5 3 4 7 6 4 5 5 4 4 9 12 13 13 12 11 10 11 12 11
38 37 36 35 34 34 33 31 30 29 28 27 28 28 28 28 27 24 21 20 21 20 20 19 18 16 15 13 10 9 9 8 8 9 9 8 8 8 9 10 11 8 5 6 6 7 10 7 6 7 5 4 5 12 15 14 11 9 10 11 12 11
38 36 35 34 32 32 32 32 31 30 29 27 28 27 27 28 26 24 22 21 21 21 21 20 18 16 16 14 11 10 10 9 8 8 7 5 6 6 6 9 10 7 6 7 6 8 10 8 6 7 5 4 6 13 16 13 9 8 11 12 12 11
35 34 34 33 30 28 30 31 30 30 29 28 28 26 26 27 25 23 22 22 21 21 20 19 18 17 17 15 12 12 12 11 9 9 8 6 7 7 6 8 8 7 7 5 6 10 10 8 5 5 4 5 9 12 13 11 8 9 11 12 11 11
31 31 31 31 29 27 28 29 29 30 29 28 28 26 25 25 24 23 22 21 20 21 20 19 18 18 17 15 13 12 12 11 10 10 10 9 10 9 7 8 7 7 6 3 8 12 9 7 6 7 8 9 10 12 11 10 9 10 11 11 11 10
29 29 29 30 29 25 27 28 28 29 27 27 26 25 25 23 23 22 21 21 20 21 21 19 18 17 17 15 13 12 11 11 11 11 10 10 11 10 8 8 8 6 5 7 12 13 9 8 8 10 12 13 12 12 12 12 11 11 11 12 12 11
28 27 27 29 28 25 27 27 27 28 26 25 24 23 23 22 22 22 22 22 21 21 21 20 19 18 17 15 13 12 12 12 12 11 10 11 11 11 8 8 8 6 7 9 12 13 10 8 8 11 14 13 12 11 11 12 12 11 12 12 13 12
28 26 25 29 28 25 27 28 28 28 26 24 23 22 22 22 22 23 24 24 22 21 21 21 19 18 17 16 14 14 13 11 11 11 10 11 12 11 9 8 8 7 9 10 12 14 11 9 9 11 14 12 9 9 10 10 11 12 13 14 14 13
27 25 26 30 29 25 27 29 28 28 26 23 22 23 22 23 23 24 25 24 22 21 21 20 18 17 15 15 15 15 13 10 11 12 10 11 12 10 10 9 6 7 9 10 13 16 14 12 11 11 13 12 10 10 11 11 11 13 14 14 16 15
28 25 27 30 29 27 28 30 27 27 26 23 23 23 23 24 24 25 26 25 21 19 20 19 17 17 15 15 15 15 14 11 11 12 10 11 11 9 9 9 7 6 8 9 13 17 17 14 12 11 12 13 12 11 12 12 12 13 15 16 17 17
27 24 26 27 25 25 26 26 25 25 25 23 23 23 23 23 24 25 26 24 20 18 18 18 17 17 15 15 15 15 15 12 11 11 11 10 9 9 8 9 9 7 7 10 14 17 17 16 15 13 11 12 12 12 12 12 13 12 13 15 17 17
26 23 25 23 22 25 24 23 23 23 24 24 22 21 22 22 23 24 24 22 19 17 18 18 17 16 15 15 14 15 15 13 11 11 12 10 9 9 9 10 10 9 9 11 14 17 17 18 19 16 12 11 13 15 13 12 12 12 12 14 17 18
25 22 22 20 22 26 24 24 25 22 23 24 22 21 21 22 22 23 22 20 19 18 17 16 16 16 15 14 14 14 14 14 12 12 12 11 10 10 11 11 10 11 12 13 15 17 16 18 21 18 14 13 13 13 12 11 12 12 12 13 15 18
26 21 16 18 25 28 24 25 26 24 24 23 22 23 22 21 22 22 21 20 19 18 17 15 15 15 13 13 13 13 14 15 14 13 13 11 10 11 12 12 11 11 12 14 16 17 18 21 22 18 15 14 12 10 10 11 11 12 13 13 14 17
25 19 14 19 26 25 19 18 19 22 25 22 21 23 22 22 22 21 21 21 20 19 18 16 14 14 12 11 12 13 17 16 14 14 13 11 11 13 13 13 13 12 11 14 16 17 18 17 16 15 14 11 8 8 8 9 10 11 13 13 13 16
25 21 17 21 22 17 15 14 13 16 22 23 21 22 20 20 20 18 19 20 19 19 18 16 15 14 13 12 12 15 18 17 15 15 14 12 13 13 13 12 14 14 14 15 15 16 16 11 12 17 14 7 3 4 5 5 7 9 11 11 12 14
25 22 20 23 17 14 18 18 16 15 16 19 21 21 18 19 20 17 17 19 19 19 18 16 16 15 15 15 16 18 17 17 16 14 14 14 14 14 13 12 13 14 15 17 17 16 13 11 15 17 9 3 2 3 2 3 5 6 9 10 10 13
25 21 21 22 16 16 21 19 20 18 14 13 16 19 20 20 20 17 17 19 19 18 17 17 18 18 18 16 16 17 15 16 16 14 14 14 14 14 14 13 13 14 15 16 17 16 12 13 18 15 8 5 4 1 2 5 6 4 6 8 8 11
24 22 21 21 17 18 21 19 21 22 17 14 14 17 19 20 20 19 19 19 18 17 16 17 19 19 18 16 16 15 14 15 17 15 14 14 14 13 13 14 14 14 14 14 16 16 14 15 15 12 9 8 5 4 8 10 5 2 3 6 7 9
24 22 22 22 19 21 22 20 20 21 17 15 17 21 21 21 21 20 19 19 18 16 15 17 17 16 16 15 17 16 14 16 17 16 14 13 14 13 13 14 14 14 14 13 15 17 16 15 14 11 9 7 4 8 18 14 6 4 3 3 6 8
26 24 22 21 21 23 26 26 24 23 19 16 22 26 23 23 22 20 19 18 17 15 14 15 14 15 16 15 17 17 16 15 15 15 15 14 13 13 14 15 14 13 13 12 13 16 18 16 15 13 10 8 5 12 18 12 11 13 5 2 5 5
28 25 24 23 25 26 28 29 26 25 22 17 20 22 21 22 23 22 20 19 17 16 15 14 13 16 17 16 17 17 17 16 13 14 16 15 14 14 13 14 15 14 13 13 13 15 16 16 15 14 13 11 10 13 13 10 14 16 8 5 4 3
30 27 27 28 29 29 29 28 26 24 23 19 18 19 20 21 23 22 20 19 18 17 17 16 16 17 16 14 15 16 16 16 14 14 15 15 15 14 13 13 15 15 14 13 14 14 15 14 13 14 15 14 14 14 12 9 12 13 10 8 5 5
30 29 29 29 29 29 28 27 26 26 25 22 20 22 22 22 22 21 20 19 19 19 19 19 18 18 16 15 15 15 14 14 13 13 13 13 14 13 13 14 15 15 15 13 13 14 14 15 14 13 15 16 17 17 15 12 14 16 13 9 7 7
27 27 28 28 28 28 26 26 27 28 28 25 23 24 25 24 23 22 21 20 19 20 20 19 20 18 17 16 15 15 14 14 14 13 12 13 14 13 13 14 15 15 14 12 13 14 14 15 15 14 14 15 16 17 15 15 18 19 17 17 15 10
25 27 27 28 28 28 27 27 28 30 30 28 25 25 26 25 23 23 23 21 20 21 21 20 20 19 18 16 16 16 14 14 16 13 11 13 14 13 13 13 15 15 14 13 12 13 14 14 15 14 14 15 15 14 13 13 17 18 17 22 22 13
26 28 27 28 29 30 30 29 31 32 32 30 27 25 26 25 23 23 23 22 21 23 23 21 20 19 18 18 17 16 15 14 16 14 12 14 14 13 13 12 14 15 15 14 13 12 13 13 13 12 13 15 15 14 12 13 16 17 18 23 23 18
30 29 28 28 30 32 32 31 32 32 32 33 30 27 26 24 22 22 23 23 23 23 23 21 19 19 19 19 18 17 16 14 15 15 14 15 14 14 14 12 14 14 14 15 14 13 13 12 12 12 12 14 14 13 13 14 15 16 18 23 25 25
33 33 32 30 31 33 34 32 32 30 30 32 33 29 26 24 22 22 23 23 24 24 23 21 20 19 19 19 18 18 17 14 15 16 14 14 14 15 15 14 15 15 14 14 14 13 13 13 13 12 12 13 14 14 15 15 16 14 16 22 25 25
31 31 31 30 29 30 31 31 31 29 26 29 33 32 29 27 23 23 23 23 24 24 22 21 21 19 18 17 18 18 17 16 16 15 14 13 13 14 14 14 14 14 13 12 12 13 12 13 14 12 12 13 13 14 14 14 16 15 15 20 24 22
Wind_Direction
156 153 153 153 155 159 165 171 172 170 170 171 171 173 173 172 173 174 172 168 165 163 164 168 172 172 167 162 159 156 156 160 161 143 129 136 143 130 116 112 118 120 117 118 120 120 113 106 99 91 82 72 87 112 108 91 78 77 89 100 104 102
154 155 157 159 160 164 170 173 173 172 173 173 171 176 178 175 176 177 175 172 168 166 166 171 172 172 169 163 161 160 160 163 162 147 135 141 150 142 127 117 118 124 128 126 124 123 117 109 98 86 73 62 89 123 113 91 79 81 92 100 105 107
163 163 164 164 166 169 172 173 174 174 174 173 171 176 176 175 177 177 176 173 170 167 168 171 170 170 169 164 163 161 164 172 166 153 147 150 159 152 137 128 122 122 132 134 132 127 118 110 95 83 64 54 99 132 117 96 86 89 98 99 101 105
168 166 166 166 168 170 171 172 174 174 174 173 171 172 172 172 175 176 175 173 170 167 169 169 166 166 167 163 162 162 167 176 169 161 161 162 167 165 151 140 132 122 125 132 136 131 120 113 97 82 45 45 107 133 115 99 90 92 101 102 102 102
169 166 165 166 167 168 168 170 172 173 176 176 174 171 171 172 174 175 174 173 171 168 168 166 166 167 167 165 164 166 170 176 174 170 171 170 172 175 166 153 144 128 122 123 124 124 122 122 98 78 17 53 105 127 111 102 92 93 102 106 108 107
171 169 168 167 168 167 166 169 171 173 178 179 178 174 173 175 175 175 173 174 173 171 170 168 170 169 167 168 169 172 176 182 184 176 175 173 173 177 174 162 152 136 130 125 122 134 141 176 199 224 314 85 105 117 110 104 92 96 103 103 109 112
173 173 172 171 169 166 166 169 170 175 181 179 178 177 176 177 178 177 174 175 175 174 173 171 169 166 165 167 168 174 172 171 174 170 170 169 167 175 177 168 161 146 137 129 150 166 161 203 225 218 221 109 107 113 114 107 93 98 103 101 105 109
175 176 174 174 170 166 168 169 171 177 182 180 178 179 178 179 181 179 176 176 179 178 176 173 167 163 163 160 157 159 149 136 145 155 158 155 150 160 169 165 160 152 154 185 177 185 187 195 214 207 198 151 113 109 117 111 96 96 99 100 102 105
176 176 175 175 171 168 170 171 172 177 181 181 180 179 179 181 182 182 179 177 180 181 178 173 167 164 161 156 156 158 153 146 144 151 156 152 147 150 158 161 160 161 178 185 171 186 196 199 220 212 192 184 121 105 119 122 112 107 101 103 107 107
177 176 174 175 174 171 172 173 174 178 181 181 181 180 180 182 182 183 182 181 182 184 184 177 169 166 162 163 172 178 181 184 180 175 170 168 172 167 167 167 167 176 181 185 190 185 191 208 228 214 192 177 131 111 126 137 135 125 109 108 114 116
177 175 173 175 178 175 175 176 176 179 182 182 183 180 179 181 180 183 183 183 184 185 187 181 173 170 168 171 181 186 187 191 194 188 179 176 179 177 176 170 172 186 187 195 192 176 188 211 206 193 173 143 134 126 137 153 152 134 116 114 122 124
176 172 172 176 179 178 179 179 177 180 182 184 185 182 181 181 181 183 184 185 187 189 187 182 179 177 175 178 180 181 182 184 183 179 178 176 175 176 175 174 181 189 185 163 148 157 179 193 166 141 120 109 134 152 161 165 157 141 127 125 129 130
175 170 173 177 178 180 179 178 178 180 181 183 185 184 184 185 184 183 183 185 188 190 188 184 183 181 179 177 173 175 177 178 177 175 179 180 176 174 171 173 187 187 162 137 130 139 158 166 154 140 124 108 125 158 173 168 159 151 142 138 137 137
173 171 175 178 180 181 178 176 178 180 181 184 187 187 186 186 186 182 180 183 187 190 187 183 181 180 180 176 170 171 175 178 178 178 180 182 177 171 166 166 182 183 155 143 127 129 146 152 153 146 134 127 132 158 178 167 160 161 156 150 146 143
172 171 175 179 180 182 178 175 178 181 181 185 190 190 188 186 184 181 180 184 189 188 182 180 180 179 179 176 171 167 171 178 179 180 180 178 175 171 171 168 176 174 149 141 127 127 138 140 142 138 128 135 159 181 187 175 169 170 167 159 155 153
171 171 176 180 179 181 180 177 179 182 181 184 189 189 190 188 183 180 181 186 188 183 180 181 181 182 181 178 176 166 162 171 174 178 178 173 175 176 179 170 167 172 150 136 129 126 129 131 132 130 123 130 157 172 176 176 175 172 172 168 164 162
173 176 180 181 179 180 179 176 179 180 179 182 185 187 189 186 183 181 182 186 185 182 184 185 184 186 184 178 177 166 157 163 170 173 174 174 179 182 186 177 162 170 160 145 142 132 126 130 129 124 127 133 146 164 171 170 171 170 174 174 170 168
178 178 181 182 177 175 174 173 176 178 176 178 181 184 187 185 183 183 182 182 180 181 186 187 188 189 186 180 176 167 159 164 173 173 173 179 189 184 181 179 162 153 154 150 151 141 129 128 124 123 134 140 146 159 163 162 166 168 170 171 170 171
182 178 183 183 169 167 171 170 171 174 173 173 177 179 184 186 185 183 181 180 178 179 186 188 190 189 185 183 182 173 163 166 179 179 177 181 189 183 171 168 157 140 137 140 144 143 135 126 119 124 136 136 135 141 147 154 165 168 167 169 168 171
186 182 185 178 160 163 169 167 166 168 169 171 174 174 178 185 187 184 182 183 183 183 187 188 188 187 181 181 185 176 166 173 184 180 178 182 184 179 167 161 156 146 140 138 139 142 142 131 120 121 125 123 124 129 138 152 165 167 163 166 169 172
190 187 183 170 161 167 174 171 166 163 164 167 172 172 174 183 186 186 186 186 187 188 188 187 188 187 179 178 181 174 173 183 184 176 176 182 182 173 164 157 151 151 149 144 143 145 145 134 122 119 119 117 116 115 126 145 155 157 155 157 164 170
187 184 178 172 170 175 182 178 169 161 158 160 173 178 175 180 182 184 188 188 188 188 187 185 187 187 177 173 180 179 182 184 178 176 178 178 179 174 169 165 154 151 155 151 151 153 151 140 128 130 126 115 108 102 107 128 140 147 152 154 157 164
182 178 177 176 173 178 178 176 173 162 159 160 172 181 179 178 178 181 186 187 188 186 183 183 188 193 181 172 189 191 184 182 177 180 183 177 179 179 175 175 165 156 155 151 154 162 163 157 144 137 129 122 131 112 94 108 128 139 151 156 156 161
183 179 178 175 176 178 168 170 174 163 164 166 165 171 174 177 180 183 185 184 187 185 182 182 187 197 191 181 194 196 186 184 182 185 189 180 178 180 176 176 170 164 163 154 152 163 173 174 158 147 135 122 146 140 122 123 118 127 151 158 158 160
185 178 174 173 183 179 158 161 170 159 160 172 163 159 161 167 176 185 187 183 185 186 183 184 188 195 195 188 192 194 190 191 189 187 190 184 179 180 180 179 171 169 175 167 159 160 164 170 168 164 158 143 142 151 165 151 132 118 149 155 158 162
181 177 173 169 179 176 158 158 164 155 156 166 162 159 160 165 173 184 190 185 185 187 184 185 190 194 192 189 192 196 193 194 193 190 192 191 186 182 180 181 177 174 178 178 173 165 159 165 171 176 175 169 203 217 163 153 147 111 140 153 157 158
173 175 176 170 169 168 165 169 165 156 163 173 170 169 173 176 178 185 191 187 187 188 185 184 189 193 191 190 195 197 190 191 195 195 195 191 187 186 181 181 184 183 180 178 180 174 168 171 173 178 177 168 228 197 162 154 159 149 137 159 159 156
166 171 177 174 169 169 172 176 172 164 169 190 187 175 175 180 178 181 186 186 185 184 185 185 186 190 193 192 194 193 188 191 198 196 191 184 183 186 184 183 184 185 183 178 181 180 173 173 176 175 169 150 150 171 166 162 162 153 134 138 151 152
162 167 176 180 177 178 180 179 176 169 169 191 196 179 176 181 178 178 182 183 183 181 182 186 188 190 190 191 190 189 187 190 194 188 186 185 184 186 188 189 185 180 182 177 179 183 175 175 181 175 167 157 152 162 172 174 160 151 141 148 150 144
163 170 180 187 185 183 186 184 177 173 173 183 189 180 180 182 179 180 181 182 183 182 182 184 188 187 185 186 186 186 187 187 186 183 183 183 182 185 187 186 180 175 177 176 176 183 181 181 186 181 172 168 164 163 165 166 161 156 149 148 142 149
171 177 185 191 192 189 189 186 178 176 178 180 181 179 178 178 180 183 183 182 181 180 180 181 181 179 179 179 176 176 180 179 178 180 183 180 178 182 180 176 174 172 175 177 176 180 184 181 181 182 182 181 176 171 168 172 170 161 154 149 139 147
181 181 188 193 196 195 191 186 182 180 180 181 182 181 179 178 182 185 184 182 180 178 178 176 174 173 173 173 170 170 174 176 175 178 182 179 178 179 176 173 173 172 174 178 177 175 177 178 178 181 190 192 185 182 183 183 175 167 165 161 149 148
190 187 192 196 197 196 192 187 186 184 182 181 182 184 183 180 182 184 182 180 179 176 172 169 169 170 170 170 170 170 172 174 174 174 171 170 174 179 178 175 172 173 176 178 179 176 172 176 181 182 188 188 184 188 193 189 181 175 172 161 150 148
196 194 193 195 196 197 195 192 191 189 185 180 181 185 184 181 181 182 181 180 177 173 171 171 172 172 171 169 169 169 169 170 171 170 165 165 170 174 175 173 170 173 178 180 180 177 173 176 182 185 186 182 183 189 188 181 178 174 171 165 157 155
196 197 194 195 196 197 197 195 195 194 189 182 180 183 183 182 182 181 180 179 175 172 172 172 172 172 173 172 169 168 168 169 170 169 167 170 172 171 169 167 168 172 176 179 179 174 174 178 181 186 188 186 188 189 181 175 178 179 177 174 168 163
195 199 199 198 197 199 200 197 198 198 193 184 179 179 180 180 183 184 182 179 175 173 170 168 168 167 167 168 167 166 168 167 165 166 169 173 174 172 172 169 168 172 174 178 181 178 178 183 183 186 189 187 187 186 183 179 181 184 181 177 172 170
195 201 202 201 199 201 201 199 199 199 199 191 182 179 180 179 181 182 181 180 177 173 170 170 172 170 166 165 164 164 166 164 161 164 168 167 167 167 170 168 165 169 173 176 180 180 184 187 184 187 190 187 185 184 184 184 183 184 184 178 174 175